sat.trackr.live / text

‹ back to catalog

STARLINK-37309

NORAD 69364 · 2026-123M

PAYLOAD ACTIVE UNKNOWN

§ Identity

Operator
Country
US
Launch date
2026-06-04
Launch site
AFETR
Launch vehicle
Mass (kg)
RCS (m²)

Purposes: comms

External: N2YO · Heavens-Above · Gunter

§ Orbital elements

Epoch: 2026-09-19T05:58:47.629632Z

Period
93.85 min
Inclination
53.1555°
Eccentricity
0.0000840
Mean motion
15.34416282 rev/d
Perigee alt
462.1 km
Apogee alt
463.2 km
Semi-major
6,840.8 km
B*
8.1885e-4
RAAN
147.8803°
Arg perigee
99.8587°
Mean anomaly
260.2510°
Rev number
1,667

§ Raw data

STARLINK-373091 69364U 26123M   26262.24916238  .00027406  00000+0  81885-3 0  99962 69364  53.1555 147.8803 0000840  99.8587 260.2510 15.34416282 16675

JSON: /api/v1/satellites/69364 · /tle

For live sub-satellite position, see the globe view (requires WebGL).

§ Visibility from observer

Set your observer location to see the next 7 days of passes ≥ 10°. The values pass through the URL so the page stays shareable.

No JS? Fill the form by hand. The geolocation button needs JavaScript.